Content
SEND FEEDBACK

Daily
Averages
Monthly
Summary
Pakistan

LANDI KOTAL, PAKISTAN


Home > Asia > Pakistan
Elevation: 3504 feet     Latitude: 34 00N     Longitude: 071 36E

WEATHER
 
SELECT A DAY
Number of Records: 79,395;   Date Range: 5/17/99 - 10/20/14
 
SHARE

PRINT THIS DATA

[ ← Previous Day ]
WEATHER ALMANAC - JANUARY 23, 2013
[ Next Day → ]
[ °C ]   °F
Weather ElementAverageHighLow
Temperature55.3 °F68 °F (3:00 pm)44.6 °F (7:00 am)
Dewpoint37.2 °F39.2 °F (2:00 am)33.8 °F (2:00 pm)
Humidity53.6 %81 % (7:00 am)28 % (3:00 pm)
Barometer30.17 in30.21 in (9:00 am)30.15 in (1:00 am)

Weather ElementAverage
Weather ElementTotal
Precipitation---
Heating Degree Days8.7 (Base 65)
Growing Degree Days6.3 (Base 50)
Averaged from 23 records on January 23, 2013
WEATHER CONDITIONS BREAKOUT
WIND DIRECTION BREAKOUT
WEATHER BY HOUR - JANUARY 23, 2013
[ °C ]   °F
Local TimeTemperatureDewpointHumidityBarometerVisibilityWind DirectionWind SpeedGust SpeedPrecipitationEventsConditions
1:00 AM50.0 °F37.4 °F62 %30.15 inNorthHaze
2:00 AM50.0 °F39.2 °F66 %30.15 inNorthHaze
3:00 AM48.2 °F39.2 °F71 %30.18 inNorthHaze
4:00 AM48.2 °F37.4 °F66 %30.15 inNorthHaze
4:59 AM48.2 °F37.4 °F66 %30.15 in2.5 miCalmHaze
6:00 AM48.2 °F37.4 °F66 %30.15 inNorthHaze
7:00 AM44.6 °F39.2 °F81 %30.15 in2.5 miCalmHaze
8:00 AM44.6 °F39.2 °F81 %30.18 in2.5 miCalmHaze
9:00 AM48.2 °F37.4 °F66 %30.21 inNorthHaze
10:00 AM57.2 °F39.2 °F51 %30.21 inNorthHaze
11:00 AM62.6 °F37.4 °F39 %30.21 inNorthHaze
12:00 PM64.4 °F37.4 °F37 %30.21 inNorthHaze
1:00 PM66.2 °F35.6 °F32 %30.18 inNorthPartly Cloudy
2:00 PM66.2 °F33.8 °F30 %30.15 inNorthPartly Cloudy
3:00 PM68.0 °F33.8 °F28 %30.15 inNorthPartly Cloudy
4:00 PM68.0 °F33.8 °F28 %30.15 inNorthPartly Cloudy
5:00 PM66.2 °F33.8 °F30 %30.15 inNorthPartly Cloudy
6:00 PM60.8 °F37.4 °F42 %30.15 inNorthHaze
7:00 PM57.2 °F39.2 °F51 %30.15 inNorthHaze
8:00 PM53.6 °F37.4 °F54 %30.15 inNorthHaze
9:00 PM51.8 °F39.2 °F62 %30.18 inNorthHaze
10:00 PM50.0 °F37.4 °F62 %30.18 inNorthHaze
11:00 PM50.0 °F37.4 °F62 %30.18 inNorthHaze
Hourly data recorded from OPPS, located miles away from Landi Kotal, Pakistan







STORIES FROM OUR PARTNERS